Location: Forli
(44.2227°N, 12.0407°E)
Time: 04:19:11
(UTC+01:00)

ARIANE 6 FM1 Upper Stage - Pass Details

Date: 19 February 2026
Orbit: 523 x 607 km, 62.0° (Epoch: 6 March)

Event Time Altitude Azimuth Distance (km) Brightness Sun altitude
Rises 18:38:18 0° 321° (NW) 2,658 6.6 -10.0°
Reaches altitude 10° 18:40:29 10° 322° (NW) 1,767 5.7 -10.4°
Maximum altitude 18:44:27 85° 51° (NE) 533 2.5 -11.1°
Drops below altitude 10° 18:48:26 10° 140° (SE) 1,774 4.9 -11.8°
Enters shadow 18:49:42 - 140° (SE) 2,290 5.4 -12.0°
